�������l�o���
Date,Time,MP-1(��Sv/h),MP-2(��Sv/h),MP-3(��Sv/h),MP-4(��Sv/h),MP-5(��Sv/h),MP-6(��Sv/h),MP-7(��Sv/h),����,����(m/s),���J
2023/05/20,00:00,0.144,0.130,0.206,0.197,0.209,0.115,0.075,�k��,1.7,��
2023/05/20,00:10,0.144,0.130,0.204,0.196,0.205,0.115,0.075,��,0.8,�L
2023/05/20,00:20,0.144,0.131,0.205,0.198,0.207,0.115,0.075,�쐼,1.2,�L
2023/05/20,00:30,0.143,0.129,0.205,0.196,0.206,0.116,0.076,��,1.3,�L
2023/05/20,00:40,0.145,0.130,0.207,0.199,0.208,0.116,0.076,�k��,2.0,�L
2023/05/20,00:50,0.145,0.131,0.205,0.197,0.207,0.116,0.076,�k�k��,1.6,�L
2023/05/20,01:00,0.146,0.131,0.206,0.198,0.208,0.116,0.075,�k�k��,2.4,�L
2023/05/20,01:10,0.144,0.130,0.206,0.196,0.207,0.116,0.075,�k�k��,3.7,�L
2023/05/20,01:20,0.145,0.131,0.205,0.199,0.206,0.116,0.076,�k�k��,4.9,�L
2023/05/20,01:30,0.143,0.130,0.206,0.196,0.207,0.116,0.075,�k�k��,4.4,�L
2023/05/20,01:40,0.145,0.130,0.206,0.198,0.207,0.116,0.076,�k�k��,5.5,�L
2023/05/20,01:50,0.143,0.132,0.207,0.196,0.208,0.116,0.077,�k�k��,5.6,�L
2023/05/20,02:00,0.145,0.131,0.204,0.199,0.208,0.116,0.076,�k��,6.2,�L
2023/05/20,02:10,0.144,0.131,0.205,0.197,0.209,0.116,0.076,�k�k��,5.9,�L
2023/05/20,02:20,0.145,0.131,0.206,0.198,0.208,0.116,0.076,�k�k��,5.6,�L
2023/05/20,02:30,0.143,0.130,0.206,0.197,0.208,0.116,0.075,�k�k��,6.9,�L
2023/05/20,02:40,0.145,0.130,0.205,0.197,0.208,0.116,0.076,�k�k��,6.4,�L
2023/05/20,02:50,0.144,0.131,0.204,0.198,0.208,0.116,0.075,�k�k��,7.3,�L
2023/05/20,03:00,0.144,0.130,0.205,0.197,0.207,0.116,0.075,�k��,6.3,�L
2023/05/20,03:10,0.144,0.131,0.203,0.198,0.207,0.116,0.076,�k�k��,7.1,�L
2023/05/20,03:20,0.144,0.130,0.205,0.197,0.207,0.116,0.076,�k�k��,7.0,��
2023/05/20,03:30,0.144,0.130,0.204,0.198,0.207,0.115,0.075,�k�k��,6.9,��
2023/05/20,03:40,0.144,0.130,0.205,0.198,0.208,0.115,0.076,�k�k��,8.1,�L
2023/05/20,03:50,0.144,0.129,0.204,0.197,0.206,0.115,0.075,�k�k��,7.3,�L
2023/05/20,04:00,0.144,0.130,0.204,0.196,0.208,0.116,0.074,�k��,6.1,�L
2023/05/20,04:10,0.144,0.129,0.206,0.197,0.208,0.115,0.074,�k�k��,6.7,�L
2023/05/20,04:20,0.144,0.130,0.205,0.197,0.208,0.116,0.075,�k��,7.0,�L
2023/05/20,04:30,0.145,0.131,0.207,0.198,0.207,0.116,0.075,�k�k��,7.6,�L
2023/05/20,04:40,0.145,0.130,0.205,0.198,0.207,0.116,0.075,�k��,7.5,�L
2023/05/20,04:50,0.145,0.131,0.206,0.197,0.208,0.116,0.076,�k��,7.9,�L
2023/05/20,05:00,0.145,0.132,0.206,0.199,0.207,0.117,0.076,�k��,7.1,�L
2023/05/20,05:10,0.145,0.131,0.206,0.197,0.208,0.117,0.077,�k�k��,8.1,�L
2023/05/20,05:20,0.146,0.131,0.206,0.200,0.208,0.117,0.076,�k�k��,7.3,�L
2023/05/20,05:30,0.146,0.132,0.206,0.198,0.210,0.118,0.077,�k�k��,7.7,�L
2023/05/20,05:40,0.145,0.133,0.207,0.200,0.208,0.118,0.078,�k�k��,7.7,�L
2023/05/20,05:50,0.146,0.133,0.207,0.199,0.209,0.119,0.078,�k�k��,7.0,�L
2023/05/20,06:00,0.146,0.133,0.207,0.198,0.209,0.118,0.078,�k�k��,7.9,�L
2023/05/20,06:10,0.146,0.133,0.207,0.199,0.211,0.119,0.077,�k�k��,7.9,�L
2023/05/20,06:20,0.147,0.134,0.207,0.200,0.209,0.118,0.078,�k��,6.6,�L
2023/05/20,06:30,0.146,0.134,0.208,0.201,0.210,0.119,0.078,�k�k��,7.2,�L
2023/05/20,06:40,0.146,0.134,0.208,0.198,0.209,0.118,0.078,�k�k��,7.8,�L
2023/05/20,06:50,0.145,0.134,0.206,0.200,0.210,0.118,0.077,�k�k��,8.3,�L
2023/05/20,07:00,0.147,0.133,0.206,0.199,0.209,0.119,0.078,�k�k��,7.5,�L
2023/05/20,07:10,0.146,0.134,0.206,0.199,0.209,0.118,0.078,�k�k��,7.6,�L
2023/05/20,07:20,0.146,0.135,0.208,0.199,0.209,0.118,0.078,�k�k��,6.4,�L
2023/05/20,07:30,0.147,0.133,0.206,0.200,0.208,0.119,0.079,�k�k��,7.4,�L
2023/05/20,07:40,0.146,0.135,0.207,0.199,0.209,0.119,0.079,�k�k��,7.2,�L
2023/05/20,07:50,0.147,0.135,0.207,0.200,0.208,0.120,0.080,�k�k��,6.9,�L
2023/05/20,08:00,0.146,0.134,0.207,0.200,0.210,0.119,0.080,�k�k��,7.2,�L
2023/05/20,08:10,0.146,0.134,0.207,0.198,0.209,0.119,0.080,�k�k��,7.3,�L
2023/05/20,08:20,0.146,0.134,0.206,0.200,0.211,0.120,0.080,�k�k��,6.5,�L
2023/05/20,08:30,0.147,0.135,0.206,0.199,0.209,0.119,0.079,�k�k��,7.3,�L
2023/05/20,08:40,0.145,0.133,0.207,0.200,0.209,0.119,0.079,�k�k��,7.7,�L
2023/05/20,08:50,0.146,0.133,0.206,0.199,0.209,0.118,0.079,�k�k��,8.1,�L
2023/05/20,09:00,0.145,0.133,0.206,0.198,0.209,0.118,0.079,�k�k��,6.9,�L
2023/05/20,09:10,0.145,0.133,0.206,0.198,0.209,0.118,0.078,�k�k��,8.4,�L
2023/05/20,09:20,0.145,0.133,0.206,0.198,0.208,0.116,0.078,�k�k��,8.1,�L
2023/05/20,09:30,0.145,0.132,0.205,0.197,0.207,0.117,0.077,�k�k��,8.4,�L
2023/05/20,09:40,0.144,0.132,0.206,0.196,0.208,0.116,0.077,�k�k��,8.1,�L
2023/05/20,09:50,0.144,0.132,0.205,0.197,0.209,0.117,0.076,�k�k��,8.4,�L
2023/05/20,10:00,0.145,0.131,0.206,0.196,0.208,0.116,0.076,�k�k��,8.3,�L
2023/05/20,10:10,0.144,0.132,0.203,0.197,0.207,0.116,0.075,�k�k��,8.3,�L
2023/05/20,10:20,0.144,0.130,0.204,0.196,0.208,0.116,0.075,�k�k��,8.8,�L
2023/05/20,10:30,0.143,0.131,0.204,0.197,0.208,0.116,0.075,�k�k��,8.3,�L
2023/05/20,10:40,0.144,0.130,0.204,0.195,0.206,0.115,0.076,�k�k��,8.8,�L
2023/05/20,10:50,0.143,0.130,0.204,0.197,0.209,0.115,0.075,�k�k��,9.0,�L
2023/05/20,11:00,0.143,0.130,0.204,0.196,0.206,0.116,0.075,�k�k��,8.4,�L
2023/05/20,11:10,0.144,0.129,0.204,0.197,0.208,0.116,0.075,�k��,8.8,�L
2023/05/20,11:20,0.143,0.130,0.203,0.196,0.206,0.114,0.075,�k�k��,8.1,�L
2023/05/20,11:30,0.143,0.130,0.205,0.197,0.207,0.115,0.074,�k�k��,8.3,�L
2023/05/20,11:40,0.142,0.130,0.202,0.195,0.205,0.115,0.074,�k�k��,7.9,�L
2023/05/20,11:50,0.143,0.130,0.205,0.195,0.207,0.115,0.074,�k�k��,8.1,�L
2023/05/20,12:00,0.143,0.129,0.202,0.195,0.205,0.115,0.075,�k�k��,7.6,�L
2023/05/20,12:10,0.144,0.128,0.204,0.195,0.205,0.114,0.075,�k��,7.3,�L
2023/05/20,12:20,0.142,0.129,0.203,0.195,0.205,0.114,0.075,�k�k��,8.4,�L
2023/05/20,12:30,0.143,0.129,0.204,0.195,0.207,0.114,0.074,�k�k��,7.3,�L
2023/05/20,12:40,0.142,0.129,0.202,0.196,0.205,0.114,0.074,�k�k��,8.1,�L
2023/05/20,12:50,0.143,0.129,0.204,0.196,0.207,0.114,0.074,�k�k��,9.0,�L
2023/05/20,13:00,0.143,0.130,0.203,0.196,0.204,0.114,0.074,�k,7.1,�L
2023/05/20,13:10,0.143,0.129,0.204,0.196,0.207,0.115,0.074,�k�k��,5.9,�L
2023/05/20,13:20,0.143,0.130,0.204,0.197,0.207,0.115,0.074,�k�k��,7.1,�L
2023/05/20,13:30,0.143,0.131,0.205,0.197,0.207,0.116,0.074,�k�k��,7.5,�L
2023/05/20,13:40,0.145,0.130,0.205,0.196,0.208,0.115,0.075,�k�k��,8.1,�L
2023/05/20,13:50,-,-,-,-,-,-,-,-,-,-
2023/05/20,14:00,0.143,0.130,0.204,0.197,0.208,0.115,0.074,�k��,8.4,��
2023/05/20,14:10,0.143,0.130,0.204,0.197,0.207,0.116,0.074,�k�k��,9.3,��
2023/05/20,14:20,0.144,0.129,0.206,0.198,0.207,0.114,0.075,�k�k��,7.4,��
2023/05/20,14:30,0.142,0.130,0.204,0.196,0.207,0.115,0.074,�k�k��,8.1,��
2023/05/20,14:40,0.144,0.129,0.205,0.196,0.206,0.115,0.074,�k�k��,6.9,��
2023/05/20,14:50,0.142,0.130,0.204,0.196,0.206,0.116,0.074,�k�k��,7.9,��
2023/05/20,15:00,0.144,0.130,0.204,0.197,0.207,0.115,0.074,�k�k��,8.1,��
2023/05/20,15:10,0.143,0.131,0.203,0.196,0.207,0.115,0.074,�k�k��,7.9,��
2023/05/20,15:20,0.144,0.129,0.206,0.197,0.206,0.115,0.074,�k�k��,7.1,��
2023/05/20,15:30,0.143,0.130,0.203,0.195,0.208,0.114,0.074,�k�k��,6.0,��
2023/05/20,15:40,0.144,0.130,0.205,0.198,0.206,0.115,0.074,�k�k��,6.7,��
2023/05/20,15:50,0.142,0.130,0.203,0.196,0.208,0.114,0.074,�k�k��,6.0,��
2023/05/20,16:00,0.144,0.129,0.205,0.196,0.206,0.116,0.075,�k�k��,7.3,��
2023/05/20,16:10,0.143,0.130,0.204,0.197,0.208,0.114,0.074,�k�k��,7.6,��
2023/05/20,16:20,0.144,0.129,0.205,0.196,0.206,0.114,0.073,�k�k��,7.0,��
2023/05/20,16:30,0.143,0.130,0.203,0.198,0.207,0.115,0.075,�k�k��,7.0,��
2023/05/20,16:40,0.143,0.129,0.205,0.195,0.205,0.115,0.074,�k�k��,7.4,��
2023/05/20,16:50,0.143,0.129,0.204,0.197,0.208,0.115,0.075,�k�k��,6.2,��
2023/05/20,17:00,0.144,0.129,0.205,0.198,0.207,0.115,0.074,�k�k��,7.3,��
2023/05/20,17:10,0.142,0.130,0.204,0.198,0.209,0.116,0.074,�k�k��,6.4,��
2023/05/20,17:20,-,-,-,-,-,-,-,-,-,-
2023/05/20,17:30,0.144,0.129,0.205,0.198,0.207,0.115,0.074,�k�k��,5.3,��
2023/05/20,17:40,0.143,0.130,0.205,0.196,0.207,0.114,0.074,�k,6.4,��
2023/05/20,17:50,0.143,0.129,0.204,0.197,0.207,0.115,0.075,�k�k��,5.4,��
2023/05/20,18:00,0.144,0.130,0.206,0.196,0.207,0.115,0.074,�k�k��,6.5,��
2023/05/20,18:10,0.142,0.130,0.204,0.198,0.206,0.115,0.074,�k�k��,6.9,��
2023/05/20,18:20,0.143,0.130,0.206,0.196,0.207,0.115,0.074,�k�k��,7.5,��
2023/05/20,18:30,0.144,0.129,0.204,0.198,0.208,0.115,0.074,�k�k��,7.4,��
2023/05/20,18:40,0.144,0.130,0.205,0.197,0.207,0.116,0.074,�k�k��,6.3,��
2023/05/20,18:50,0.144,0.130,0.206,0.197,0.208,0.116,0.074,�k�k��,5.8,��
2023/05/20,19:00,0.144,0.130,0.205,0.198,0.207,0.115,0.073,�k�k��,6.1,��
2023/05/20,19:10,0.144,0.130,0.206,0.197,0.208,0.115,0.074,�k�k��,6.7,��
2023/05/20,19:20,0.143,0.131,0.205,0.199,0.208,0.114,0.074,�k�k��,6.4,��
2023/05/20,19:30,0.144,0.130,0.206,0.198,0.208,0.115,0.074,�k�k��,6.4,��
2023/05/20,19:40,0.144,0.129,0.205,0.198,0.207,0.115,0.074,�k�k��,6.4,��
2023/05/20,19:50,0.145,0.130,0.206,0.197,0.209,0.115,0.074,�k�k��,6.0,��
2023/05/20,20:00,0.143,0.129,0.206,0.198,0.207,0.115,0.075,�k�k��,6.5,��
2023/05/20,20:10,0.144,0.131,0.204,0.198,0.207,0.116,0.074,�k�k��,7.0,��
2023/05/20,20:20,0.144,0.130,0.206,0.199,0.207,0.116,0.074,�k�k��,6.8,��
2023/05/20,20:30,0.143,0.130,0.204,0.198,0.207,0.116,0.073,�k�k��,6.8,�L
2023/05/20,20:40,0.145,0.129,0.206,0.198,0.208,0.116,0.075,�k�k��,6.0,�L
2023/05/20,20:50,0.144,0.130,0.206,0.198,0.208,0.116,0.074,�k�k��,5.5,�L
2023/05/20,21:00,0.145,0.131,0.206,0.197,0.208,0.115,0.075,�k�k��,5.7,�L
2023/05/20,21:10,0.144,0.130,0.206,0.199,0.207,0.116,0.075,�k��,6.9,�L
2023/05/20,21:20,0.145,0.130,0.206,0.198,0.209,0.116,0.075,�k�k��,6.7,��
2023/05/20,21:30,0.144,0.130,0.207,0.197,0.208,0.117,0.075,�k�k��,7.2,��
2023/05/20,21:40,0.145,0.131,0.205,0.199,0.208,0.115,0.074,�k��,7.5,��
2023/05/20,21:50,0.144,0.130,0.207,0.198,0.207,0.115,0.074,�k�k��,7.3,��
2023/05/20,22:00,0.144,0.130,0.205,0.199,0.208,0.116,0.074,�k�k��,6.4,��
2023/05/20,22:10,0.144,0.130,0.205,0.197,0.207,0.115,0.074,�k�k��,7.0,��
2023/05/20,22:20,0.143,0.130,0.206,0.199,0.207,0.115,0.074,�k�k��,6.3,��
2023/05/20,22:30,0.145,0.130,0.205,0.198,0.206,0.116,0.074,�k�k��,6.4,��
2023/05/20,22:40,0.143,0.130,0.206,0.198,0.207,0.115,0.074,�k�k��,5.8,��
2023/05/20,22:50,0.145,0.130,0.206,0.198,0.207,0.115,0.075,�k,5.4,��
2023/05/20,23:00,0.144,0.131,0.205,0.197,0.207,0.115,0.074,�k�k��,6.2,��
2023/05/20,23:10,0.144,0.129,0.205,0.197,0.208,0.115,0.074,�k�k��,6.5,��
2023/05/20,23:20,0.144,0.131,0.205,0.198,0.207,0.116,0.074,�k�k��,6.4,��
2023/05/20,23:30,0.144,0.130,0.205,0.198,0.208,0.116,0.074,�k�k��,6.7,��
2023/05/20,23:40,0.145,0.130,0.205,0.198,0.206,0.116,0.074,�k�k��,7.1,��
2023/05/20,23:50,0.143,0.130,0.206,0.198,0.209,0.115,0.075,�k�k��,6.4,��
